#Datum;Uhrzeit;WR;Pac;DaySum;Status;WR;Pac;DaySum;Status;Pdc1;Udc;Temp;WR;Pac;DaySum;Status;Pdc1;Udc;Temp;WR;Pac;DaySum;Status;Pdc1;Udc;Temp;WR;Pac;DaySum;Status;Pdc1;Pdc2;Udc1;Udc2;Temp;WR;Pac;DaySum;Status;Pdc1;Pdc2;Udc1;Udc2;Temp;WR;Pac;DaySum;Status;Pdc1;Udc;Temp;WR;Pac;DaySum;Status;Pdc1;Udc;Temp;WR;Pac;DaySum;Status;Pdc1;Udc;Temp
21.10.18;23:55:00;1;209;6664;0;2;0;13898;0;0;0;0;3;0;9028;0;0;0;0;4;0;12809;0;0;0;0;5;0;34379;0;0;0;0;0;0;6;0;26071;0;0;0;0;0;0;7;0;22343;0;0;0;0;8;0;21671;0;0;0;0;9;0;11464;0;0;0;0
21.10.18;23:50:00;1;241;6646;0;2;0;13898;0;0;0;0;3;0;9028;0;0;0;0;4;0;12809;0;0;0;0;5;0;34379;0;0;0;0;0;0;6;0;26071;0;0;0;0;0;0;7;0;22343;0;0;0;0;8;0;21671;0;0;0;0;9;0;11464;0;0;0;0
21.10.18;23:45:00;1;252;6626;0;2;0;13898;0;0;0;0;3;0;9028;0;0;0;0;4;0;12809;0;0;0;0;5;0;34379;0;0;0;0;0;0;6;0;26071;0;0;0;0;0;0;7;0;22343;0;0;0;0;8;0;21671;0;0;0;0;9;0;11464;0;0;0;0
21.10.18;23:40:00;1;252;6605;0;2;0;13898;0;0;0;0;3;0;9028;0;0;0;0;4;0;12809;0;0;0;0;5;0;34379;0;0;0;0;0;0;6;0;26071;0;0;0;0;0;0;7;0;22343;0;0;0;0;8;0;21671;0;0;0;0;9;0;11464;0;0;0;0
21.10.18;23:35:00;1;244;6584;0;2;0;13898;0;0;0;0;3;0;9028;0;0;0;0;4;0;12809;0;0;0;0;5;0;34379;0;0;0;0;0;0;6;0;26071;0;0;0;0;0;0;7;0;22343;0;0;0;0;8;0;21671;0;0;0;0;9;0;11464;0;0;0;0
21.10.18;23:30:00;1;210;6564;0;2;0;13898;0;0;0;0;3;0;9028;0;0;0;0;4;0;12809;0;0;0;0;5;0;34379;0;0;0;0;0;0;6;0;26071;0;0;0;0;0;0;7;0;22343;0;0;0;0;8;0;21671;0;0;0;0;9;0;11464;0;0;0;0
21.10.18;23:25:00;1;209;6546;0;2;0;13898;0;0;0;0;3;0;9028;0;0;0;0;4;0;12809;0;0;0;0;5;0;34379;0;0;0;0;0;0;6;0;26071;0;0;0;0;0;0;7;0;22343;0;0;0;0;8;0;21671;0;0;0;0;9;0;11464;0;0;0;0
21.10.18;23:20:00;1;210;6529;0;2;0;13898;0;0;0;0;3;0;9028;0;0;0;0;4;0;12809;0;0;0;0;5;0;34379;0;0;0;0;0;0;6;0;26071;0;0;0;0;0;0;7;0;22343;0;0;0;0;8;0;21671;0;0;0;0;9;0;11464;0;0;0;0
21.10.18;23:15:00;1;210;6511;0;2;0;13898;0;0;0;0;3;0;9028;0;0;0;0;4;0;12809;0;0;0;0;5;0;34379;0;0;0;0;0;0;6;0;26071;0;0;0;0;0;0;7;0;22343;0;0;0;0;8;0;21671;0;0;0;0;9;0;11464;0;0;0;0
21.10.18;23:10:00;1;226;6494;0;2;0;13898;0;0;0;0;3;0;9028;0;0;0;0;4;0;12809;0;0;0;0;5;0;34379;0;0;0;0;0;0;6;0;26071;0;0;0;0;0;0;7;0;22343;0;0;0;0;8;0;21671;0;0;0;0;9;0;11464;0;0;0;0
21.10.18;23:07:00;1;274;6486;0;2;0;13898;0;0;0;0;3;0;9028;0;0;0;0;4;0;12809;0;0;0;0;5;0;34379;0;0;0;0;0;0;6;0;26071;0;0;0;0;0;0;7;0;22343;0;0;0;0;8;0;21671;0;0;0;0;9;0;11464;0;0;0;0
21.10.18;23:00:00;1;299;6449;0;2;0;13898;0;0;0;0;3;0;9028;0;0;0;0;4;0;12809;0;0;0;0;5;0;34379;0;0;0;0;0;0;6;0;26071;0;0;0;0;0;0;7;0;22343;0;0;0;0;8;0;21671;0;0;0;0;9;0;11464;0;0;0;0
21.10.18;22:55:00;1;318;6424;0;2;0;13898;0;0;0;0;3;0;9028;0;0;0;0;4;0;12809;0;0;0;0;5;0;34379;2;0;0;0;0;0;6;0;26071;2;0;0;0;0;0;7;0;22343;0;0;0;0;8;0;21671;0;0;0;0;9;0;11464;0;0;0;0
21.10.18;22:50:00;1;320;6398;0;2;0;13898;0;0;0;0;3;0;9028;0;0;0;0;4;0;12809;0;0;0;0;5;0;34379;2;0;0;0;0;0;6;0;26071;2;0;0;0;0;0;7;0;22343;0;0;0;0;8;0;21671;0;0;0;0;9;0;11464;0;0;0;0
21.10.18;22:45:00;1;318;6371;0;2;0;13898;0;0;0;0;3;0;9028;0;0;0;0;4;0;12809;0;0;0;0;5;0;34379;2;0;0;0;0;0;6;0;26071;2;0;0;0;0;0;7;0;22343;0;0;0;0;8;0;21671;0;0;0;0;9;0;11464;0;0;0;0
21.10.18;22:40:00;1;278;6344;0;2;0;13898;0;0;0;0;3;0;9028;0;0;0;0;4;0;12809;0;0;0;0;5;0;34379;2;0;0;0;0;0;6;0;26071;2;0;0;0;0;0;7;0;22343;0;0;0;0;8;0;21671;0;0;0;0;9;0;11464;0;0;0;0
21.10.18;22:35:00;1;280;6321;0;2;0;13898;0;0;0;0;3;0;9028;0;0;0;0;4;0;12809;0;0;0;0;5;0;34379;2;0;0;0;0;0;6;0;26071;2;0;0;0;0;0;7;0;22343;0;0;0;0;8;0;21671;0;0;0;0;9;0;11464;0;0;0;0
21.10.18;22:30:00;1;239;6298;0;2;0;13898;0;0;0;0;3;0;9028;0;0;0;0;4;0;12809;0;0;0;0;5;0;34379;2;0;0;0;0;0;6;0;26071;2;0;0;0;0;0;7;0;22343;0;0;0;0;8;0;21671;0;0;0;0;9;0;11464;0;0;0;0
21.10.18;22:25:00;1;319;6277;0;2;0;13898;0;0;0;0;3;0;9028;0;0;0;0;4;0;12809;0;0;0;0;5;0;34379;2;0;0;0;0;0;6;0;26071;2;0;0;0;0;0;7;0;22343;0;0;0;0;8;0;21671;0;0;0;0;9;0;11464;0;0;0;0
21.10.18;22:20:00;1;355;6249;0;2;0;13898;0;0;0;0;3;0;9028;0;0;0;0;4;0;12809;0;0;0;0;5;0;34379;2;0;0;0;0;0;6;0;26071;2;0;0;0;0;0;7;0;22343;0;0;0;0;8;0;21671;0;0;0;0;9;0;11464;0;0;0;0
21.10.18;22:15:00;1;354;6219;0;2;0;13898;0;0;0;0;3;0;9028;0;0;0;0;4;0;12809;0;0;0;0;5;0;34379;2;0;0;0;0;0;6;0;26071;2;0;0;0;0;0;7;0;22343;0;0;0;0;8;0;21671;0;0;0;0;9;0;11464;0;0;0;0
21.10.18;22:10:00;1;377;6190;0;2;0;13898;0;0;0;0;3;0;9028;0;0;0;0;4;0;12809;0;0;0;0;5;0;34379;2;0;0;0;0;0;6;0;26071;2;0;0;0;0;0;7;0;22343;0;0;0;0;8;0;21671;0;0;0;0;9;0;11464;0;0;0;0
21.10.18;22:05:00;1;484;6157;0;2;0;13898;0;0;0;0;3;0;9028;0;0;0;0;4;0;12809;0;0;0;0;5;0;34379;2;0;0;0;0;0;6;0;26071;2;0;0;0;0;0;7;0;22343;0;0;0;0;8;0;21671;0;0;0;0;9;0;11464;0;0;0;0
21.10.18;22:00:00;1;489;6117;0;2;0;13898;0;0;0;0;3;0;9028;0;0;0;0;4;0;12809;0;0;0;0;5;0;34379;2;0;0;0;0;0;6;0;26071;2;0;0;0;0;0;7;0;22343;0;0;0;0;8;0;21671;0;0;0;0;9;0;11464;0;0;0;0
21.10.18;21:55:00;1;460;6076;0;2;0;13898;0;0;0;0;3;0;9028;0;0;0;0;4;0;12809;0;0;0;0;5;0;34379;2;0;0;0;0;0;6;0;26071;2;0;0;0;0;0;7;0;22343;0;0;0;0;8;0;21671;0;0;0;0;9;0;11464;0;0;0;0
21.10.18;21:50:00;1;398;6037;0;2;0;13898;0;0;0;0;3;0;9028;0;0;0;0;4;0;12809;0;0;0;0;5;0;34379;2;0;0;0;0;0;6;0;26071;2;0;0;0;0;0;7;0;22343;0;0;0;0;8;0;21671;0;0;0;0;9;0;11464;0;0;0;0
21.10.18;21:45:00;1;395;6004;0;2;0;13898;0;0;0;0;3;0;9028;0;0;0;0;4;0;12809;0;0;0;0;5;0;34379;2;0;0;0;0;0;6;0;26071;2;0;0;0;0;0;7;0;22343;0;0;0;0;8;0;21671;0;0;0;0;9;0;11464;0;0;0;0
21.10.18;21:40:00;1;396;5971;0;2;0;13898;0;0;0;0;3;0;9028;0;0;0;0;4;0;12809;0;0;0;0;5;0;34379;2;0;0;0;0;0;6;0;26071;2;0;0;0;0;0;7;0;22343;0;0;0;0;8;0;21671;0;0;0;0;9;0;11464;0;0;0;0
21.10.18;21:35:00;1;357;5939;0;2;0;13898;0;0;0;0;3;0;9028;0;0;0;0;4;0;12809;0;0;0;0;5;0;34379;2;0;0;0;0;0;6;0;26071;2;0;0;0;0;0;7;0;22343;0;0;0;0;8;0;21671;0;0;0;0;9;0;11464;0;0;0;0
21.10.18;21:30:00;1;355;5909;0;2;0;13898;0;0;0;0;3;0;9028;0;0;0;0;4;0;12809;0;0;0;0;5;0;34379;2;0;0;0;0;0;6;0;26071;2;0;0;0;0;0;7;0;22343;0;0;0;0;8;0;21671;0;0;0;0;9;0;11464;0;0;0;0
21.10.18;21:25:00;1;349;5879;0;2;0;13898;0;0;0;0;3;0;9028;0;0;0;0;4;0;12809;0;0;0;0;5;0;34379;2;0;0;0;0;0;6;0;26071;2;0;0;0;0;0;7;0;22343;0;0;0;0;8;0;21671;0;0;0;0;9;0;11464;0;0;0;0
21.10.18;21:20:00;1;436;5849;0;2;0;13898;0;0;0;0;3;0;9028;0;0;0;0;4;0;12809;0;0;0;0;5;0;34379;2;0;0;0;0;0;6;0;26071;2;0;0;0;0;0;7;0;22343;0;0;0;0;8;0;21671;0;0;0;0;9;0;11464;0;0;0;0
21.10.18;21:15:00;1;451;5812;0;2;0;13898;0;0;0;0;3;0;9028;0;0;0;0;4;0;12809;0;0;0;0;5;0;34379;2;0;0;0;0;0;6;0;26071;2;0;0;0;0;0;7;0;22343;0;0;0;0;8;0;21671;0;0;0;0;9;0;11464;0;0;0;0
21.10.18;21:10:00;1;460;5775;0;2;0;13898;0;0;0;0;3;0;9028;0;0;0;0;4;0;12809;0;0;0;0;5;0;34379;2;0;0;0;0;0;6;0;26071;2;0;0;0;0;0;7;0;22343;0;0;0;0;8;0;21671;0;0;0;0;9;0;11464;0;0;0;0
21.10.18;21:05:00;1;513;5737;0;2;0;13898;0;0;0;0;3;0;9028;0;0;0;0;4;0;12809;0;0;0;0;5;0;34379;2;0;0;0;0;0;6;0;26071;2;0;0;0;0;0;7;0;22343;0;0;0;0;8;0;21671;0;0;0;0;9;0;11464;0;0;0;0
21.10.18;21:00:00;1;426;5698;0;2;0;13898;0;0;0;0;3;0;9028;0;0;0;0;4;0;12809;0;0;0;0;5;0;34379;2;0;0;0;0;0;6;0;26071;2;0;0;0;0;0;7;0;22343;0;0;0;0;8;0;21671;0;0;0;0;9;0;11464;0;0;0;0
21.10.18;20:55:00;1;429;5662;0;2;0;13898;0;0;0;0;3;0;9028;0;0;0;0;4;0;12809;0;0;0;0;5;0;34379;2;0;0;0;0;0;6;0;26071;2;0;0;0;0;0;7;0;22343;0;0;0;0;8;0;21671;0;0;0;0;9;0;11464;0;0;0;0
21.10.18;20:50:00;1;425;5627;0;2;0;13898;0;0;0;0;3;0;9028;0;0;0;0;4;0;12809;0;0;0;0;5;0;34379;2;0;0;0;0;0;6;0;26071;2;0;0;0;0;0;7;0;22343;0;0;0;0;8;0;21671;0;0;0;0;9;0;11464;0;0;0;0
21.10.18;20:45:00;1;428;5591;0;2;0;13898;0;0;0;0;3;0;9028;0;0;0;0;4;0;12809;0;0;0;0;5;0;34379;2;0;0;0;0;0;6;0;26071;2;0;0;0;0;0;7;0;22343;0;0;0;0;8;0;21671;0;0;0;0;9;0;11464;0;0;0;0
21.10.18;20:40:00;1;428;5556;0;2;0;13898;0;0;0;0;3;0;9028;0;0;0;0;4;0;12809;0;0;0;0;5;0;34379;2;0;0;0;0;0;6;0;26071;2;0;0;0;0;0;7;0;22343;0;0;0;0;8;0;21671;0;0;0;0;9;0;11464;0;0;0;0
21.10.18;20:35:00;1;418;5520;0;2;0;13898;0;0;0;0;3;0;9028;0;0;0;0;4;0;12809;0;0;0;0;5;0;34379;2;0;0;0;0;0;6;0;26071;2;0;0;0;0;0;7;0;22343;0;0;0;0;8;0;21671;0;0;0;0;9;0;11464;0;0;0;0
21.10.18;20:30:00;1;370;5485;0;2;0;13898;0;0;0;0;3;0;9028;0;0;0;0;4;0;12809;0;0;0;0;5;0;34379;2;0;0;0;0;0;6;0;26071;2;0;0;0;0;0;7;0;22343;0;0;0;0;8;0;21671;0;0;0;0;9;0;11464;0;0;0;0
21.10.18;20:25:00;1;1090;5454;0;2;0;13898;0;0;0;0;3;0;9028;0;0;0;0;4;0;12809;0;0;0;0;5;0;34379;2;0;0;0;0;0;6;0;26071;2;0;0;0;0;0;7;0;22343;0;0;0;0;8;0;21671;0;0;0;0;9;0;11464;0;0;0;0
21.10.18;20:20:00;1;682;5347;0;2;0;13898;0;0;0;0;3;0;9028;0;0;0;0;4;0;12809;0;0;0;0;5;0;34379;2;0;0;0;0;0;6;0;26071;2;0;0;0;0;0;7;0;22343;0;0;0;0;8;0;21671;0;0;0;0;9;0;11464;0;0;0;0
21.10.18;20:15:00;1;412;5289;0;2;0;13898;0;0;0;0;3;0;9028;0;0;0;0;4;0;12809;0;0;0;0;5;0;34379;2;0;0;0;0;0;6;0;26071;2;0;0;0;0;0;7;0;22343;0;0;0;0;8;0;21671;0;0;0;0;9;0;11464;0;0;0;0
21.10.18;20:10:00;1;369;5254;0;2;0;13898;0;0;0;0;3;0;9028;0;0;0;0;4;0;12809;0;0;0;0;5;0;34379;2;0;0;0;0;0;6;0;26071;2;0;0;0;0;0;7;0;22343;0;0;0;0;8;0;21671;0;0;0;0;9;0;11464;0;0;0;0
21.10.18;20:05:00;1;373;5223;0;2;0;13898;0;0;0;0;3;0;9028;0;0;0;0;4;0;12809;0;0;0;0;5;0;34379;2;0;0;0;0;0;6;0;26071;2;0;0;0;0;0;7;0;22343;0;0;0;0;8;0;21671;0;0;0;0;9;0;11464;0;0;0;0
21.10.18;20:00:00;1;373;5192;0;2;0;13898;0;0;0;0;3;0;9028;0;0;0;0;4;0;12809;0;0;0;0;5;0;34379;2;0;0;0;0;0;6;0;26071;2;0;0;0;0;0;7;0;22343;0;0;0;0;8;0;21671;0;0;0;0;9;0;11464;0;0;0;0
21.10.18;19:55:00;1;373;5161;0;2;0;13898;0;0;0;0;3;0;9028;0;0;0;0;4;0;12809;0;0;0;0;5;0;34379;2;0;0;0;0;0;6;0;26071;2;0;0;0;0;0;7;0;22343;0;0;0;0;8;0;21671;0;0;0;0;9;0;11464;0;0;0;0
21.10.18;19:50:00;1;372;5130;0;2;0;13898;0;0;0;0;3;0;9028;0;0;0;0;4;0;12809;0;0;0;0;5;0;34379;2;0;0;0;0;0;6;0;26071;2;0;0;0;0;0;7;0;22343;0;0;0;0;8;0;21671;0;0;0;0;9;0;11464;0;0;0;0
21.10.18;19:45:00;1;343;5099;0;2;0;13898;0;0;0;0;3;0;9028;0;0;0;0;4;0;12809;0;0;0;0;5;0;34379;2;0;0;0;0;0;6;0;26071;2;0;0;0;0;0;7;0;22343;0;0;0;0;8;0;21671;0;0;0;0;9;0;11464;0;0;0;0
21.10.18;19:40:00;1;333;5072;0;2;0;13898;0;0;0;0;3;0;9028;0;0;0;0;4;0;12809;0;0;0;0;5;0;34379;2;0;0;0;0;0;6;0;26071;2;0;0;0;0;0;7;0;22343;0;0;0;0;8;0;21671;0;0;0;0;9;0;11464;0;0;0;0
21.10.18;19:35:00;1;329;5043;0;2;0;13898;0;0;0;0;3;0;9028;0;0;0;0;4;0;12809;0;0;0;0;5;0;34379;2;0;0;0;0;0;6;0;26071;2;0;0;0;0;0;7;0;22343;0;0;0;0;8;0;21671;0;0;0;0;9;0;11464;0;0;0;0
21.10.18;19:30:00;1;310;5016;0;2;0;13898;0;0;0;0;3;0;9028;0;0;0;0;4;0;12809;0;0;0;0;5;0;34379;2;0;0;0;0;0;6;0;26071;2;0;0;0;0;0;7;0;22343;0;0;0;0;8;0;21671;0;0;0;0;9;0;11464;0;0;0;0
21.10.18;19:25:00;1;332;4990;0;2;0;13898;0;0;0;0;3;0;9028;0;0;0;0;4;0;12809;0;0;0;0;5;0;34379;2;0;0;0;0;0;6;0;26071;2;0;0;0;0;0;7;0;22343;0;0;0;0;8;0;21671;0;0;0;0;9;0;11464;0;0;0;0
21.10.18;19:20:00;1;270;4964;0;2;0;13898;0;0;0;0;3;0;9028;0;0;0;0;4;0;12809;0;0;0;0;5;0;34379;2;0;0;0;0;0;6;0;26071;2;0;0;0;0;0;7;0;22343;0;0;0;0;8;0;21671;0;0;0;0;9;0;11464;0;0;0;0
21.10.18;19:15:00;1;297;4941;0;2;0;13898;0;0;0;0;3;0;9028;0;0;0;0;4;0;12809;0;0;0;0;5;0;34379;2;0;0;0;0;0;6;0;26071;2;0;0;0;0;0;7;0;22343;0;0;0;0;8;0;21671;0;0;0;0;9;0;11464;0;0;0;0
21.10.18;19:10:00;1;229;4916;0;2;0;13898;0;0;0;0;3;0;9028;0;0;0;0;4;0;12809;0;0;0;0;5;0;34379;2;0;0;0;0;0;6;0;26071;2;0;0;0;0;0;7;0;22343;0;0;0;0;8;0;21671;0;0;0;0;9;0;11464;0;0;0;0
21.10.18;19:05:00;1;233;4898;0;2;0;13898;0;0;0;0;3;0;9028;0;0;0;0;4;0;12809;0;0;0;0;5;0;34379;2;0;0;0;0;0;6;0;26071;2;0;0;0;0;0;7;0;22343;0;0;0;0;8;0;21671;0;0;0;0;9;0;11464;0;0;0;0
21.10.18;19:00:00;1;274;4879;0;2;0;13898;0;0;0;0;3;0;9028;0;0;0;0;4;0;12809;0;0;0;0;5;0;34379;2;0;0;0;0;0;6;0;26071;2;0;0;0;0;0;7;0;22343;0;0;0;0;8;0;21671;0;0;0;0;9;0;11464;0;0;0;0
21.10.18;18:55:00;1;274;4856;0;2;0;13898;0;0;0;0;3;0;9028;0;0;0;0;4;0;12809;0;0;0;0;5;0;34379;2;0;0;0;0;0;6;0;26071;2;0;0;0;0;0;7;0;22343;0;0;0;0;8;0;21671;0;0;0;0;9;0;11464;0;0;0;0
21.10.18;18:50:00;1;299;4833;0;2;0;13898;0;0;0;0;3;0;9028;0;0;0;0;4;0;12809;0;0;0;0;5;0;34379;2;0;0;0;0;0;6;0;26071;2;0;0;0;0;0;7;0;22343;0;0;0;0;8;0;21671;0;0;0;0;9;0;11464;0;0;0;0
21.10.18;18:45:00;1;363;4807;0;2;0;13898;0;0;0;0;3;0;9028;0;0;0;0;4;0;12809;0;0;0;0;5;0;34379;2;0;0;0;0;0;6;0;26071;2;0;0;0;0;0;7;0;22343;0;0;0;0;8;0;21671;0;0;0;0;9;0;11464;0;0;0;0
21.10.18;18:40:00;1;366;4777;0;2;0;13898;0;0;0;0;3;0;9028;0;0;0;0;4;0;12809;0;0;0;0;5;0;34379;2;0;0;0;0;0;6;0;26071;2;0;0;0;0;0;7;0;22343;0;0;0;0;8;0;21671;0;0;0;0;9;0;11464;0;0;0;0
21.10.18;18:35:00;1;414;4746;0;2;0;13898;0;0;0;0;3;0;9028;0;0;0;0;4;0;12809;0;0;0;0;5;0;34379;2;0;0;0;0;0;6;0;26071;2;0;0;0;0;0;7;0;22343;0;0;0;0;8;0;21671;0;0;0;0;9;0;11464;0;0;0;0
21.10.18;18:30:00;1;326;4716;0;2;0;13898;0;0;0;0;3;0;9028;0;0;0;0;4;0;12809;0;0;0;0;5;0;34379;2;0;0;0;0;0;6;0;26071;2;0;0;0;0;0;7;0;22343;0;0;0;0;8;0;21671;0;0;0;0;9;0;11464;0;0;0;0
21.10.18;18:25:00;1;323;4688;0;2;0;13898;0;0;150;12;3;0;9028;6;0;287;24;4;0;12809;0;0;9;3;5;0;34379;2;0;0;0;0;0;6;0;26071;2;0;0;0;0;0;7;0;22343;0;0;0;0;8;0;21671;0;0;0;0;9;0;11464;0;0;0;0
21.10.18;18:20:00;1;255;4664;0;2;0;13898;6;0;291;23;3;0;9028;6;0;332;24;4;0;12809;2;0;80;23;5;0;34379;2;0;3;13;13;5;6;0;26071;2;0;0;0;0;0;7;0;22343;0;0;0;0;8;0;21671;0;0;0;0;9;0;11464;0;0;0;0
21.10.18;18:15:00;1;213;4643;0;2;0;13898;6;0;313;23;3;0;9028;6;0;380;24;4;0;12809;1;0;103;23;5;0;34379;2;0;0;188;187;27;6;0;26071;0;3;1;154;89;20;7;0;22343;0;0;0;0;8;0;21671;0;0;0;0;9;0;11464;0;0;42;3
21.10.18;18:10:00;1;206;4625;0;2;0;13898;6;0;341;24;3;0;9028;6;2;414;25;4;0;12809;1;0;139;24;5;0;34379;26;0;0;360;395;33;6;0;26071;23;8;0;180;474;31;7;0;22343;6;0;283;26;8;0;21671;2;0;279;26;9;0;11464;6;0;292;21
21.10.18;18:05:00;1;206;4607;0;2;0;13898;6;0;373;24;3;0;9028;6;0;473;25;4;0;12809;1;0;192;24;5;7;34379;1;0;0;390;604;33;6;0;26071;23;12;0;181;537;32;7;0;22343;6;1;365;27;8;0;21671;6;0;370;26;9;0;11464;6;0;382;22
21.10.18;18:00:00;1;229;4590;0;2;31;13898;6;53;372;25;3;1;9028;4;5;498;26;4;3;12809;1;3;203;25;5;27;34378;1;0;5;397;631;34;6;0;26071;8;4;1;387;564;32;7;0;22343;6;4;421;27;8;0;21671;3;1;424;27;9;0;11464;3;4;328;17
21.10.18;17:55:00;1;248;4571;0;2;88;13895;4;124;351;26;3;21;9028;6;34;488;26;4;36;12808;3;37;198;25;5;126;34374;4;26;45;371;590;35;6;36;26071;1;16;16;299;287;33;7;25;22342;6;42;419;28;8;13;21671;6;27;437;27;9;3;11464;6;6;505;22
21.10.18;17:50:00;1;250;4550;0;2;292;13888;4;336;358;27;3;179;9026;4;219;415;27;4;232;12806;5;242;208;25;5;192;34364;4;74;72;371;589;35;6;75;26069;4;42;40;224;215;34;7;123;22341;4;155;365;28;8;66;21670;4;110;440;27;9;7;11463;6;11;530;23
21.10.18;17:45:00;1;243;4529;0;2;388;13863;4;437;379;27;3;271;9011;4;315;429;27;4;374;12786;5;389;210;26;5;278;34347;4;125;102;371;589;35;6;109;26062;4;59;56;224;215;34;7;329;22330;4;362;355;28;8;102;21665;4;131;332;22;9;11;11463;6;15;311;14
21.10.18;17:40:00;1;207;4509;0;2;383;13831;4;433;398;28;3;268;8989;4;313;440;28;4;436;12755;5;454;212;26;5;342;34323;4;167;131;377;589;35;6;133;26053;4;67;65;224;215;34;7;316;22304;4;336;226;17;8;142;21654;4;179;379;28;9;24;11460;6;34;293;14
21.10.18;17:35:00;1;207;4491;0;2;452;13799;4;503;392;28;3;244;8966;4;284;438;28;4;395;12719;5;411;217;26;5;425;34294;4;208;158;391;589;35;6;151;26041;4;73;69;224;214;34;7;537;22264;4;581;437;29;8;199;21643;4;237;428;28;9;29;11454;0;41;165;8
21.10.18;17:30:00;1;206;4474;0;2;473;13761;4;524;368;28;3;294;8946;4;339;453;28;4;370;12686;5;385;213;26;5;575;34259;4;282;229;394;602;35;6;187;26029;4;102;96;224;214;34;7;668;22219;4;717;455;29;8;270;21626;4;319;472;29;9;87;11449;0;120;405;20
21.10.18;17:25:00;1;206;4457;0;2;376;13721;4;423;388;29;3;228;8921;4;274;483;28;4;290;12655;5;302;228;26;5;625;34210;4;293;267;395;626;35;6;192;26013;4;98;96;224;215;34;7;307;22150;0;345;382;25;8;341;21604;4;388;453;29;9;135;11442;4;164;420;20
21.10.18;17:20:00;1;206;4440;0;2;361;13690;4;410;382;29;3;221;8902;4;265;488;29;4;280;12630;5;292;227;27;5;604;34157;4;287;257;399;617;35;6;186;25996;4;89;87;224;215;34;7;410;22124;4;456;463;30;8;397;21575;4;443;456;30;9;193;11428;4;237;506;25
21.10.18;17:15:00;1;207;4422;0;2;265;13660;4;309;376;30;3;158;8883;4;200;488;29;4;178;12607;5;186;224;27;5;413;34110;4;183;181;371;589;36;6;148;25981;4;77;77;236;236;34;7;195;22091;4;220;298;20;8;84;21537;0;97;153;10;9;128;11412;4;165;506;26
21.10.18;17:10:00;1;207;4405;0;2;310;13638;4;360;377;31;3;183;8870;4;224;458;29;4;210;12592;5;218;220;27;5;465;34076;4;211;201;386;613;36;6;311;25968;4;140;159;454;467;34;7;302;22066;4;340;443;31;8;171;21510;0;200;261;18;9;108;11398;0;129;403;21
21.10.18;17:05:00;1;250;4387;0;2;1204;13612;4;1280;378;33;3;668;8855;4;723;422;30;4;735;12575;5;765;208;28;5;1270;34033;4;636;549;413;661;36;6;975;25939;4;493;511;582;556;35;7;905;22041;4;968;451;31;8;684;21497;4;727;353;25;9;183;11390;4;217;445;27
21.10.18;17:00:00;1;251;4366;0;2;949;13512;4;1015;371;33;3;515;8800;4;569;458;30;4;668;12514;5;695;236;28;5;1372;33924;4;699;592;416;650;36;6;1073;25854;4;554;556;575;548;35;7;1884;21966;4;1982;463;32;8;1758;21431;4;1848;448;31;9;278;11375;4;307;284;22
21.10.18;16:55:00;1;254;4345;0;2;1654;13435;4;1746;379;35;3;903;8758;4;965;428;31;4;953;12459;5;993;211;28;5;1875;33812;4;974;812;411;669;36;6;1393;25770;4;705;717;577;559;35;7;2398;21816;4;2520;465;32;8;1105;21291;4;1159;227;15;9;554;11349;4;592;296;23
21.10.18;16:50:00;1;272;4324;0;2;2095;13299;4;2208;382;36;3;1166;8683;4;1238;415;31;4;1191;12381;5;1240;201;28;5;2389;33652;4;1257;1050;417;670;36;6;1825;25649;4;938;922;591;564;35;7;2692;21616;4;2820;465;31;8;2621;21107;4;2747;468;31;9;755;11292;4;799;287;23
21.10.18;16:45:00;1;272;4301;0;2;2249;13125;4;2372;384;36;3;1256;8586;4;1332;424;31;4;1225;12281;5;1276;200;28;5;2688;33449;4;1412;1163;422;692;36;6;2054;25495;4;1072;1067;592;567;35;7;2268;21394;4;2383;376;25;8;2787;20890;4;2929;463;31;9;1133;11216;4;1197;391;30
21.10.18;16:40:00;1;272;4278;0;2;2276;12938;4;2401;376;35;3;1332;8482;4;1406;418;31;4;1220;12179;5;1271;200;28;5;2903;33225;4;1551;1273;424;681;36;6;2217;25324;4;1125;1119;589;566;35;7;2407;21155;4;2522;371;24;8;2927;20657;4;3073;467;31;9;1319;11121;4;1396;442;30
21.10.18;16:35:00;1;293;4255;0;2;2401;12748;4;2530;386;35;3;1376;8371;4;1458;420;31;4;1139;12078;5;1186;201;28;5;3042;32982;4;1621;1337;423;678;36;6;2321;25138;4;1194;1158;591;563;35;7;3118;20906;4;3277;471;31;8;2561;20414;4;2679;390;25;9;1527;11011;4;1621;477;31
21.10.18;16:30:00;1;274;4231;0;2;2550;12548;4;2682;387;35;3;1422;8256;4;1504;420;31;4;1129;11982;5;1176;206;28;5;3233;32728;4;1725;1426;423;682;36;6;2460;24944;4;1249;1237;593;566;34;7;1291;20534;0;1354;191;12;8;1259;20156;4;1323;187;12;9;663;10829;0;705;199;12
21.10.18;16:25:00;1;274;4208;0;2;2728;12337;4;2874;389;33;3;1517;8138;4;1599;421;31;4;1148;11888;5;1196;209;28;5;3487;32458;4;1864;1545;426;689;36;6;2653;24738;4;1355;1338;595;574;34;7;3228;20381;4;3384;474;31;8;1969;19761;0;2066;288;18;9;977;10747;4;1038;314;18
21.10.18;16:20:00;1;279;4185;0;2;1803;12109;4;1911;402;32;3;1010;8012;4;1080;433;30;4;793;11793;5;826;219;28;5;2284;32166;4;1199;1001;428;679;36;6;1758;24515;4;909;916;599;568;34;7;518;20111;4;546;81;5;8;2579;19631;4;2706;477;30;9;0;10464;0;0;0;0
21.10.18;16:15:00;1;304;4161;0;2;1860;11949;4;1967;399;31;3;981;7922;4;1052;473;30;4;825;11724;5;860;219;28;5;2573;31959;4;1361;1132;429;666;36;6;2106;24357;4;1050;1063;584;571;34;7;0;19244;0;0;0;0;8;1385;19405;4;1455;236;15;9;329;10464;4;349;89;4
21.10.18;16:10:00;1;248;4136;0;2;603;11789;4;659;384;30;3;358;7837;4;408;491;30;4;357;11653;5;372;235;28;5;793;31754;4;381;338;407;644;37;6;608;24197;4;290;298;565;548;35;7;0;19244;0;0;0;0;8;69;19068;0;76;79;5;9;249;10299;4;269;173;9
21.10.18;16:05:00;1;249;4115;0;2;419;11740;4;474;386;31;3;259;7807;4;305;500;30;4;297;11624;5;310;231;29;5;719;31689;4;345;307;404;629;37;6;545;24146;4;256;277;562;540;35;7;215;19244;0;241;226;16;8;266;19060;4;299;294;20;9;167;10264;4;198;416;23
21.10.18;16:00:00;1;205;4094;0;2;450;11705;4;505;387;32;3;277;7786;4;326;483;30;4;314;11599;5;327;230;29;5;738;31629;4;362;314;405;619;37;6;564;24101;4;257;279;564;552;35;7;319;19221;4;349;303;21;8;74;19020;0;84;74;5;9;0;10227;0;0;0;0
21.10.18;15:55:00;1;205;4077;0;2;468;11667;4;522;381;33;3;290;7763;4;337;491;31;4;325;11573;5;338;229;30;5;752;31567;4;363;324;398;626;38;6;578;24053;4;293;306;563;543;35;7;176;19151;0;192;146;11;8;432;18983;0;479;379;26;9;174;10227;0;202;340;20
21.10.18;15:50:00;1;205;4060;0;2;629;11628;4;688;381;35;3;366;7738;4;416;483;32;4;522;11546;5;544;229;31;5;1037;31504;4;514;452;402;627;38;6;829;24005;4;422;434;560;538;36;7;347;19137;4;377;265;19;8;563;18947;4;618;440;33;9;289;10209;4;330;502;30
21.10.18;15:45:00;1;205;4043;0;2;537;11577;4;589;370;36;3;331;7709;4;382;469;32;4;397;11504;5;413;223;31;5;920;31423;4;450;393;398;632;38;6;703;23941;4;336;356;543;535;36;7;215;19076;0;233;147;11;8;105;18857;0;113;74;5;9;317;10184;4;362;486;32
21.10.18;15:40:00;1;230;4026;0;2;1673;11533;4;1785;390;39;3;951;7681;4;1015;426;33;4;828;11471;5;862;225;32;5;1861;31347;4;969;820;397;639;39;6;1437;23882;4;736;736;550;541;36;7;857;19035;4;910;265;20;8;1840;18849;4;1946;449;34;9;776;10142;0;824;204;14
21.10.18;15:35:00;1;207;4006;0;2;3569;11394;4;3758;382;40;3;1959;7602;4;2059;413;34;4;2100;11400;5;2187;229;32;5;5595;31143;4;3057;2498;412;661;38;6;4266;23734;4;2215;2167;575;554;36;7;1865;18748;0;1955;180;13;8;907;18689;4;954;90;6;9;2526;10073;4;2657;508;34
21.10.18;15:30:00;1;244;3989;0;2;3607;11096;4;3804;389;38;3;2011;7439;4;2114;426;34;4;2259;11226;5;2353;234;32;5;5808;30677;4;3164;2599;417;666;38;6;4428;23377;4;2301;2232;578;552;35;7;1907;18606;4;2000;182;13;8;1858;18316;4;1947;179;13;9;2575;9867;4;2724;507;34
21.10.18;15:25:00;1;307;3966;0;2;3666;10796;4;3864;392;37;3;2126;7271;4;2238;461;33;4;2388;11039;5;2487;237;32;5;6027;30191;4;3294;2697;416;670;38;6;4599;23006;4;2388;2315;586;562;35;7;4897;18211;4;5137;465;32;8;2898;17809;0;3041;272;19;9;1596;9652;4;1691;308;20
21.10.18;15:20:00;1;327;3941;0;2;3730;10490;4;3941;401;34;3;2301;7095;4;2422;483;32;4;2507;10840;5;2611;242;31;5;6171;29691;4;3366;2753;422;697;37;6;4741;22625;4;2447;2387;594;575;35;7;4653;17804;4;4882;476;32;8;984;17421;0;1034;95;6;9;2535;9433;4;2683;525;31
21.10.18;15:15:00;1;326;3914;0;2;561;10180;4;618;392;32;3;350;6903;4;403;489;31;4;446;10631;5;465;232;31;5;1131;29212;4;565;488;405;641;38;6;1029;22254;4;516;549;568;549;35;7;493;17431;4;535;302;21;8;608;17128;4;659;383;26;9;0;8971;0;0;0;0
21.10.18;15:10:00;1;283;3886;0;2;685;10133;4;747;388;33;3;427;6874;4;481;488;32;4;535;10594;5;557;228;31;5;1219;29119;4;611;523;409;646;38;6;933;22181;4;472;483;563;550;35;7;240;17368;4;255;154;11;8;149;17021;0;157;78;5;9;147;8971;0;166;168;10
21.10.18;15:05:00;1;254;3863;0;2;844;10075;4;911;385;34;3;534;6838;4;592;497;32;4;675;10548;5;703;230;32;5;1490;29014;4;755;644;407;643;39;6;1150;22100;4;575;578;565;550;36;7;658;17286;0;700;304;22;8;638;17004;4;679;306;22;9;251;8956;4;278;252;15
21.10.18;15:00:00;1;236;3842;0;2;868;10005;4;935;384;35;3;549;6793;4;607;499;33;4;705;10492;5;734;227;33;5;1610;28889;4;819;694;409;657;39;6;1233;22004;4;603;627;568;556;36;7;1037;17232;4;1101;455;34;8;817;16905;0;876;361;26;9;536;8916;4;592;507;32
21.10.18;14:55:00;1;208;3821;0;2;1002;9933;4;1076;385;37;3;635;6747;4;695;492;34;4;819;10433;5;853;230;33;5;1849;28754;4;962;805;408;646;40;6;1417;21900;4;707;719;561;549;36;7;1212;17145;4;1286;457;34;8;1187;16841;4;1259;455;34;9;633;8871;4;693;505;32
21.10.18;14:50:00;1;269;3804;0;2;1356;9851;4;1440;376;38;3;869;6696;4;938;477;34;4;1070;10366;5;1114;225;34;5;2391;28600;4;1264;1051;396;639;40;6;1777;21781;4;898;904;554;542;36;7;828;17046;4;878;270;20;8;1592;16744;4;1683;442;34;9;550;8818;4;592;301;20
21.10.18;14:45:00;1;270;3781;0;2;3522;9735;4;3704;372;41;3;2245;6621;4;2370;484;36;4;2903;10275;5;3024;224;35;5;5875;28403;4;3202;2660;394;640;39;6;4366;21630;4;2247;2200;554;541;36;7;3899;16932;4;4091;441;34;8;1753;16532;0;1846;223;17;9;746;8747;4;795;246;17
21.10.18;14:40:00;1;228;3759;0;2;4436;9453;4;4665;377;39;3;2877;6442;4;3029;485;35;4;3744;10044;5;3900;230;34;5;8005;27886;4;4426;3607;405;642;38;6;6209;21237;4;3205;3113;563;547;35;7;4646;16619;4;4883;357;27;8;1126;16189;0;1181;88;6;9;1279;8613;0;1352;197;14
21.10.18;14:35:00;1;359;3740;0;2;4065;9084;4;4278;385;37;3;2699;6202;4;2843;488;34;4;3922;9732;5;4085;230;33;5;7837;27205;4;4329;3520;406;651;37;6;5891;20717;4;3050;2975;567;557;35;7;0;15412;0;0;0;0;8;1000;15480;0;1048;76;5;9;3303;8466;4;3490;497;34